Powrót do katalogu

STARLINK-5141

AktywnyŁącznośćVLEO
NORAD 55500·PAYLOAD·🇺🇸 United States

Wystrzelony Feb 2, 2023 z Cape Canaveral Space Force Station

Loading…

Następne Przeloty (najbliższe 24 godziny)

TLE

ŚwieżeSource: CelesTrak SupGP

Epoka: Sep 15, 2026, 02:33 UTC

1 55500C 23015BD  26258.10673611  .00008734  00000+0  31639-3 0  2588
2 55500  43.0044 350.1957 0002075 277.1128  17.0818 15.27568389    14

Śledź STARLINK-5141 w czasie rzeczywistym z AllMySat

Download on the App Store